[[{"header":{"parameterUnit":"m.s-1","parameterCategory":1,"la1":30.2992,"la2":30.254,"lo1":-89.0895,"lo2":-89.0443,"dy":0.0025,"dx":0.0025,"nx":19,"ny":19,"refTime":"2026-05-03T03:00:00:Z","depth":0,"parameterNumber":2,"parameterNumberName":"U-component_of_WINDS"},"data":[0,0,0,-1.0573,-1.0578,-1.0776,-1.0776,-1.1047,-1.105,0,0,0,0,0,0,0,0,0,0,0,-1.0523,-1.0525,-1.0573,-1.0578,-1.0776,-1.0777,-1.1047,-1.105,0,0,0,0,0,0,0,0,0,0,0,-1.0522,-1.0525,-1.0528,-1.0579,-1.0776,-1.0777,-1.1046,-1.0891,0,0,0,0,0,0,0,0,0,0,-1.0696,-1.0658,-1.0524,-1.0528,-1.058,-1.0775,-1.0777,-1.0884,-1.0901,-1.0965,0,-1.1022,0,-1.104,-1.1069,-1.107,0,0,0,-1.0572,-1.0644,-1.0689,-1.0528,-1.0582,-1.0775,-1.0685,-1.0893,-1.0913,-1.0988,-1.1025,-1.1035,-1.1045,-1.1071,-1.1072,-1.1456,-1.1458,0,0,-1.0562,-1.0564,-1.0675,-1.0702,-1.067,-1.0679,-1.0691,-1.0905,-1.0947,-1.1026,-1.1041,-1.1049,-1.1073,-1.1075,-1.1454,-1.1456,0,0,0,-1.0534,-1.0557,-1.0596,-1.0691,-1.0725,-1.0685,-1.0699,-1.0937,-1.095,-1.1044,-1.1052,-1.1074,-1.1078,-1.1452,-1.1455,-1.1562,0,0,0,-1.0527,-1.0541,-1.0592,-1.0596,-1.0722,-1.0833,-1.0727,-1.0935,-1.0959,-1.1051,-1.1075,-1.1081,-1.1449,-1.1453,-1.1555,-1.1615,0,0,0,-1.0508,-1.0538,-1.057,-1.0596,-1.068,-1.083,-1.0854,-1.094,-1.0965,-1.107,-1.1081,-1.1448,-1.1453,-1.1548,-1.1603,-1.172,0,0,0,-1.0488,-1.0661,-1.0571,-1.0768,-1.0679,-1.0892,-1.0853,-1.1012,-1.1115,-1.1076,-1.145,-1.1455,-1.1545,-1.1596,-1.1712,-1.1823,-1.1867,0,0,-1.0709,-1.0688,-1.0804,-1.0729,-1.096,-1.0862,-1.111,-1.1202,-1.1209,-1.1374,-1.1383,-1.1557,-1.1602,-1.1719,-1.2107,-1.2142,0,0,0,-1.0875,-1.0959,-1.1019,-1.1116,-1.1189,-1.1259,-1.1312,-1.1346,-1.1486,-1.1293,-1.1628,-1.1655,-1.1723,-1.1776,-1.1806,-1.1867,-1.1477,-1.1477,-1.1476,-1.1195,-1.1194,-1.1386,-1.141,-1.1505,-1.1558,-1.1636,-1.1692,-1.1663,-1.1742,-1.1793,-1.2028,-1.209,-1.2113,-1.2176,-1.1846,-1.1847,-1.1847,-1.1847,-1.1523,-1.1644,-1.1599,-1.1771,-1.177,-1.1915,-1.1973,-1.1948,-1.2085,-1.1989,-1.205,-1.1952,-1.2152,-1.2207,-1.1855,-1.1854,-1.1853,-1.1852,-1.1852,-1.1737,-1.1795,-1.1832,-1.1974,-1.2084,-1.21,-1.2234,-1.2226,-1.2221,-1.228,-1.2336,-1.2334,-1.2336,-1.2305,-1.2306,-1.2307,-1.2308,-1.2308,-1.2309,-1.1948,-1.1985,-1.2099,-1.219,-1.2253,-1.2334,-1.2388,-1.245,-1.2518,-1.2503,-1.2503,-1.2471,-1.2169,-1.2097,-1.2322,-1.2319,-1.2318,-1.2317,-1.2316,-1.2291,-1.2212,-1.2387,-1.2449,-1.2558,-1.2669,-1.2656,-1.2783,-1.2833,-1.29,-1.2852,-1.2629,-1.2609,-1.2585,-1.2526,-1.2848,-1.2848,-1.2848,-1.2848,-1.2477,-1.2464,-1.2642,-1.2743,-1.2841,-1.2847,-1.3048,-1.3091,-1.3124,-1.3156,-1.3107,-1.3025,-1.3,-1.2995,-1.2962,-1.2908,-1.332,-1.3321,-1.3321,-1.2691,-1.2687,-1.2859,-1.2888,-1.2972,-1.3045,-1.3235,-1.3355,-1.3375,-1.334,-1.3182,-1.3162,-1.303,-1.2986,-1.2954,-1.2903,-1.2802,0,0]},{"header":{"parameterUnit":"m.s-1","parameterCategory":1,"la1":30.2992,"la2":30.254,"lo1":-89.0895,"lo2":-89.0443,"dy":0.0025,"dx":0.0025,"nx":19,"ny":19,"refTime":"2026-05-03T03:00:00:Z","depth":0,"parameterNumber":3,"parameterNumberName":"V-component_of_WINDS"},"data":[0,0,0,-4.7345,-4.735,-4.7588,-4.7589,-4.7907,-4.791,0,0,0,0,0,0,0,0,0,0,0,-4.7284,-4.7287,-4.7344,-4.735,-4.7588,-4.7589,-4.7906,-4.791,0,0,0,0,0,0,0,0,0,0,0,-4.7283,-4.7286,-4.7289,-4.7351,-4.7588,-4.7589,-4.7906,-4.7721,0,0,0,0,0,0,0,0,0,0,-4.7487,-4.7442,-4.7285,-4.7289,-4.7353,-4.7588,-4.7589,-4.7712,-4.7733,-4.7806,0,-4.7875,0,-4.7898,-4.7932,-4.7933,0,0,0,-4.7343,-4.7425,-4.748,-4.729,-4.7355,-4.7587,-4.7479,-4.7723,-4.7747,-4.7833,-4.7879,-4.789,-4.7903,-4.7934,-4.7936,-4.8387,-4.839,0,0,-4.733,-4.7332,-4.7464,-4.7496,-4.7461,-4.7471,-4.7486,-4.7737,-4.7787,-4.788,-4.7898,-4.7908,-4.7937,-4.7939,-4.8385,-4.8388,0,0,0,-4.7297,-4.7323,-4.7372,-4.7483,-4.7525,-4.7478,-4.7495,-4.7776,-4.7791,-4.7901,-4.7912,-4.7939,-4.7943,-4.8382,-4.8386,-4.8512,0,0,0,-4.7289,-4.7304,-4.7367,-4.7371,-4.7521,-4.7654,-4.7529,-4.7774,-4.7802,-4.791,-4.7939,-4.7946,-4.838,-4.8384,-4.8503,-4.8572,0,0,0,-4.7265,-4.7301,-4.7339,-4.737,-4.7473,-4.7649,-4.7679,-4.778,-4.781,-4.7934,-4.7947,-4.8378,-4.8383,-4.8495,-4.8558,-4.8692,0,0,0,-4.724,-4.7447,-4.7341,-4.7576,-4.7471,-4.7726,-4.7678,-4.7867,-4.7989,-4.794,-4.838,-4.8386,-4.8492,-4.855,-4.8684,-4.8807,-4.8859,0,0,-4.7503,-4.7479,-4.7617,-4.7529,-4.7804,-4.7689,-4.7982,-4.809,-4.8098,-4.829,-4.8301,-4.8506,-4.8557,-4.8691,-4.9142,-4.9183,0,0,0,-4.7701,-4.78,-4.7872,-4.7989,-4.8077,-4.8158,-4.8221,-4.8261,-4.8424,-4.8198,-4.859,-4.862,-4.8698,-4.8757,-4.8792,-4.8859,-4.8413,-4.8412,-4.8411,-4.8077,-4.8077,-4.8305,-4.8335,-4.8448,-4.8511,-4.8603,-4.8667,-4.8633,-4.8726,-4.8783,-4.9058,-4.9127,-4.9153,-4.9223,-4.8847,-4.8848,-4.8848,-4.8848,-4.8462,-4.8603,-4.8554,-4.8758,-4.8757,-4.8928,-4.8995,-4.8966,-4.9124,-4.9014,-4.9083,-4.8964,-4.9198,-4.9259,-4.8858,-4.8856,-4.8855,-4.8854,-4.8853,-4.871,-4.8778,-4.8823,-4.8991,-4.9121,-4.9141,-4.9296,-4.9289,-4.9283,-4.935,-4.9411,-4.9409,-4.9407,-4.9379,-4.938,-4.9381,-4.9382,-4.9383,-4.9384,-4.895,-4.8997,-4.9129,-4.924,-4.9313,-4.9409,-4.9473,-4.9545,-4.9623,-4.9605,-4.9605,-4.9563,-4.922,-4.9135,-4.9398,-4.9396,-4.9394,-4.9392,-4.9391,-4.9344,-4.9254,-4.9458,-4.9532,-4.9661,-4.979,-4.9777,-4.9924,-4.9982,-5.0059,-5.0002,-4.9748,-4.9723,-4.9696,-4.9625,-5.0,-5.0,-5.0,-5.0,-4.9555,-4.9541,-4.9748,-4.9867,-4.9982,-4.9992,-5.0222,-5.0273,-5.0311,-5.0347,-5.0291,-5.0196,-5.0168,-5.016,-5.0122,-5.0056,-5.0532,-5.0533,-5.0533,-4.9798,-4.9795,-4.9993,-5.003,-5.013,-5.0216,-5.0432,-5.0569,-5.0593,-5.0555,-5.0375,-5.0353,-5.0199,-5.0149,-5.0109,-5.0051,-4.993,0,0]}]]